Regional Weather Roundup
Issued by NWS

Home | Current Version | Previous Version | Text Only | Print | Product List | Glossary On
Versions: 1 2 3 4 5 6 7 8 9 10 11 12 13 14 15 16 17 18 19 20 21 22 23 24 25 26 27 28 29 30 31 32 33 34 35 36 37 38 39 40 41 42 43 44 45 46 47 48 49 50
000
ASUS44 KFWD 211415
RWRTX
NORTH TEXAS HOURLY WEATHER ROUNDUP
NATIONAL WEATHER SERVICE FORT WORTH TX
900 AM CDT TUE APR 21 2015

NOTE: "FAIR" INDICATES FEW OR NO CLOUDS BELOW 12,000 FEET WITH NO
SIGNIFICANT WEATHER AND/OR OBSTRUCTIONS TO VISIBILITY.

TXZ118-119-211500-
DALLAS/FORT WORTH METROPLEX

CITY           SKY/WX    TMP DP  RH WIND       PRES   REMARKS
DFW AIRPORT    PTSUNNY   56  49  77 SE6       29.99S
DALLAS LOVE    PTSUNNY   57  49  74 SE8       30.00S
FTW MEACHAM    PTSUNNY   58  45  62 SE12      29.99F
DAL-EXECUTIVE  CLOUDY    59  45  59 E7        30.02R
FTW-ALLIANCE   PTSUNNY   58  49  72 S7        29.98F
FTW-NAS-JRB    PTSUNNY   62  46  55 SE9       30.04F
FTW-SPINKS     PTSUNNY   61  46  59 CALM      30.03R
ARLINGTON      CLOUDY    60  46  59 SE7       30.00S
GRAND PRAIRIE  SUNNY     61  46  59 E7        30.03R
ADDISON        TSTM      55  45  67 SE15      30.01R
MESQUITE       CLOUDY    55  48  76 NW7       30.06R
LANCASTER      CLOUDY    56  49  79 CALM      30.03R
$$

TXZ091>094-102>105-117-120-121-131>134-211500-
NORTH CENTRAL TEXAS

CITY           SKY/WX    TMP DP  RH WIND       PRES   REMARKS
SHRMAN/DENISON PTSUNNY   58  49  70 S6        30.02S
GAINESVILLE    PTSUNNY   54  50  85 SE5       30.03F
BOWIE          CLOUDY    54  46  74 S7        30.01R
BRIDGEPORT       N/A    N/A N/A N/A E5        30.02R
DECATUR        CLOUDY    55  45  71 CALM      30.03R
DENTON         TSTM      53  49  86 CALM      30.02R FOG
MCKINNEY       LGT RAIN  55  49  80 S5        30.02R
GREENVILLE     MOSUNNY   57  46  67 SE5       30.02S
ROCKWALL       RAIN      57  46  65 SW5       30.05R
TERRELL        LGT RAIN  59  49  69 E5        30.03R
WAXAHACHIE     CLOUDY    56  50  78 CALM      30.03R
CLEBURNE       PTSUNNY   59  46  63 SE8       30.03R
GRANBURY         N/A     60  47  61 E5        30.02S
$$

TXZ083>090-098>101-113>116-127>130-139>142-154-155-211500-
WESTERN NORTH TEXAS

CITY           SKY/WX    TMP DP  RH WIND       PRES   REMARKS
WICHITA FALLS  CLOUDY    58  46  64 S6        29.98S
WF-KICKAPOO    CLOUDY    61  44  54 S8        30.00S
VERNON         MOSUNNY   60  37  40 S17       29.99S
ABILENE        MOSUNNY   59  46  62 S15       29.97S
ABILENE-DYESS  MOSUNNY   60  48  64 S10       29.95F
BRECKENRIDGE   MOSUNNY   59  41  50 S8        29.99R HAZE
GRAHAM         CLOUDY    58  47  66 CALM      29.99R
MINERAL WELLS  CLOUDY    56  46  69 SE5       29.99R
STEPHENVILLE   MOSUNNY   59  44  58 SE6       30.03R
COMANCHE       SUNNY     58  46  65 S12       29.99S
BROWNWOOD      SUNNY     59  45  58 S7        29.99S
COLEMAN        SUNNY     59  47  66 S12       29.99S
BRADY          SUNNY     57  46  67 SE14      29.99S
$$

TXZ143>147-156>162-174-175-211500-
CENTRAL TEXAS

CITY           SKY/WX    TMP DP  RH WIND       PRES   REMARKS
WACO           SUNNY     60  48  64 SE8       30.01F
WACO-TSTC      SUNNY     59  50  72 SE6       30.01F
WACO-MCGREGOR  SUNNY     61  46  59 SE9       30.02F
HILLSBORO      SUNNY     62  45  53 SE9       30.00F
CORSICANA      CLOUDY    62  47  57 SE12      30.02F
MEXIA          CLOUDY    58  48  69 MISG      30.02F
HEARNE         SUNNY     62  48  61 E5        30.04F
CAMERON        SUNNY     60  51  72 E3        30.03S
TEMPLE         SUNNY     61  45  55 SE9       30.02S
KILLEEN        SUNNY     60  45  57 SE9       30.01F
KILLEEN-SKYLRK SUNNY     61  45  55 E8        30.02S
FORT HOOD      SUNNY     61  45  56 SE10      30.01S
GATESVILLE     SUNNY     57  46  67 SE3       30.03S
HAMILTON       SUNNY     59  44  56 SE13G21   30.01S
LAMPASAS       SUNNY     58  48  70 SE7       30.01S
$$

TXZ095>097-106>112-122>126-135>138-148>153-164>167-211500-
EAST TEXAS

CITY           SKY/WX    TMP DP  RH WIND       PRES   REMARKS
PARIS          PTSUNNY   55  43  62 MISG      30.02F
SULPHUR SPRNGS   N/A     58  45  62 E6        30.05S
MOUNT PLEASANT MOSUNNY   57  47  69 S3        30.07R
GILMER         CLOUDY    54  46  74 CALM      30.05R
TYLER          LGT RAIN  57  47  69 S8        30.03R
LONGVIEW       CLOUDY    60  44  55 E6        30.05R
MARSHALL       CLOUDY    58  49  73 CALM      30.07R
ATHENS         CLOUDY    55  50  82 CALM      30.02S
PALESTINE      CLOUDY    61  46  58 E3        30.05S
JACKSONVILLE   CLOUDY    57  48  72 CALM      30.07R
HENDERSON      CLOUDY    58  46  63 CALM      30.09R
NACOGDOCHES    MOSUNNY   57  46  67 E7        30.05S
LUFKIN         MOSUNNY   64  48  56 E9        30.03S
$$

SUPPLEMENTAL OBSERVATIONS (CENTRAL)

CITY           SKY/WX    TMP DP  RH WIND       PRES   REMARKS
LAKE TEXOMA      N/A     59  48  67 CALM        N/A
CADDO GRASSLND   N/A     57  46  67 S7          N/A
PAT MAYSE LAKE   N/A     54  43  66 E3          N/A
GREENVILLE       N/A     57  46  67 SE7         N/A
CEDAR HILL       N/A     61  46  59 SE2         N/A
ATHENS           N/A     59  48  67 E5          N/A
LAKE LIMESTONE   N/A     63  48  59 E5          N/A
MCGREGOR         N/A     63  45  51 SE9         N/A
TEMPLE           N/A     63  45  51 E8          N/A
$$

SUPPLEMENTAL OBSERVATIONS (WEST)

CITY           SKY/WX    TMP DP  RH WIND       PRES   REMARKS
MILLERS CREEK    N/A     57  45  62 S6          N/A
POSSUM KINGDOM   N/A     59  43  55 SE7         N/A
LBJ GRASSLAND    N/A     54  46  76 SE5         N/A
GRANBURY         N/A     61  46  59 E6          N/A
COMANCHE         N/A     61  43  51 S12         N/A
HAMBY            N/A     61  45  55 S14         N/A
IVIE RESERVOIR   N/A     59  46  63 SE10        N/A
COLORADO BEND    N/A     61  45  55 S7          N/A
$$

SUPPLEMENTAL OBSERVATIONS (EAST)

CITY           SKY/WX    TMP DP  RH WIND       PRES   REMARKS
CLARKSVILLE      N/A     61  45  55 SE7         N/A
TEXARKANA        N/A     63  46  55 SE1         N/A
LINDEN           N/A     61  45  55 SE1         N/A
CADDO LAKE       N/A     59  48  67 E2          N/A
GILMER           N/A     55  48  76 S1          N/A
HENDERSON        N/A     57  45  62 S6          N/A
LUFKIN           N/A     64  48  55 MISG        N/A
N SABINE NF      N/A     55  54  94 MISG        N/A
S SABINE NF      N/A     63  46  55 CALM        N/A
$$

SUPPLEMENTAL OBSERVATIONS ARE A COLLECTION OF AUTOMATED INSTRUMENTS
THAT ARE MAINTAINED BY A VARIETY OF FEDERAL AND STATE AGENCIES.
CERTAIN ELEMENTS...SUCH AS HUMIDITY VALUES AND SUSTAINED WIND
SPEEDS...MAY BE APPROXIMATED.




USA.gov is the U.S. government's official web portal to all federal, state and local government web resources and services.